TimeCDT,TemperatureF,Dew PointF,Humidity,Sea Level PressureIn,VisibilityMPH,Wind Direction,Wind SpeedMPH,Gust SpeedMPH,PrecipitationIn,Events,Conditions,WindDirDegrees,DateUTC
12:54 AM,72.0,66.9,84,29.81,10.0,SSE,5.8,-,N/A,,Clear,150,2013-07-22 05:54:00
1:54 AM,72.0,66.9,84,29.79,10.0,South,5.8,-,N/A,,Clear,170,2013-07-22 06:54:00
2:54 AM,71.1,66.9,87,29.79,10.0,SSE,3.5,-,N/A,,Clear,150,2013-07-22 07:54:00
3:54 AM,71.1,66.0,84,29.78,10.0,South,3.5,-,N/A,,Clear,170,2013-07-22 08:54:00
4:54 AM,69.1,66.0,90,29.77,10.0,SSW,3.5,-,N/A,,Clear,210,2013-07-22 09:54:00
5:54 AM,69.1,66.0,90,29.76,10.0,Calm,Calm,-,N/A,,Clear,0,2013-07-22 10:54:00
6:54 AM,68.0,66.0,93,29.76,6.0,South,4.6,-,N/A,,Clear,190,2013-07-22 11:54:00
7:54 AM,72.0,68.0,87,29.79,8.0,SE,3.5,-,N/A,,Clear,130,2013-07-22 12:54:00
8:54 AM,77.0,70.0,79,29.79,10.0,SSW,6.9,-,N/A,,Clear,200,2013-07-22 13:54:00
9:54 AM,81.0,71.1,72,29.77,10.0,South,8.1,-,N/A,,Clear,180,2013-07-22 14:54:00
10:54 AM,86.0,71.1,61,29.76,10.0,South,6.9,-,N/A,,Clear,180,2013-07-22 15:54:00
11:54 AM,89.1,72.0,57,29.75,10.0,South,6.9,-,N/A,,Clear,190,2013-07-22 16:54:00
12:54 PM,91.9,69.1,47,29.75,10.0,Calm,Calm,-,N/A,,Clear,0,2013-07-22 17:54:00
1:54 PM,95.0,68.0,41,29.75,10.0,WSW,6.9,-,N/A,,Clear,250,2013-07-22 18:54:00
2:54 PM,97.0,64.0,34,29.75,10.0,South,11.5,-,N/A,,Clear,170,2013-07-22 19:54:00
3:54 PM,96.1,68.0,40,29.75,10.0,South,13.8,18.4,N/A,,Clear,180,2013-07-22 20:54:00
4:54 PM,96.1,66.0,37,29.74,10.0,South,9.2,-,N/A,,Partly Cloudy,180,2013-07-22 21:54:00
5:54 PM,96.1,64.0,35,29.73,10.0,SSW,11.5,-,N/A,,Clear,200,2013-07-22 22:54:00
6:54 PM,93.0,63.0,37,29.73,10.0,SSW,8.1,-,N/A,,Clear,200,2013-07-22 23:54:00
7:54 PM,91.9,64.0,39,29.74,10.0,WSW,4.6,-,N/A,,Clear,250,2013-07-23 00:54:00
8:54 PM,89.1,66.9,48,29.75,10.0,NNW,5.8,-,N/A,,Clear,330,2013-07-23 01:54:00
9:54 PM,81.0,66.0,60,29.78,10.0,North,15.0,-,N/A,,Clear,360,2013-07-23 02:54:00
10:54 PM,79.0,63.0,58,29.81,10.0,North,12.7,-,N/A,,Clear,10,2013-07-23 03:54:00
11:54 PM,77.0,61.0,58,29.83,10.0,NE,13.8,-,N/A,,Clear,40,2013-07-23 04:54:00